• în România
  • Lista ţărilor
  • Pe 7 zile
  • Temperatura apei
  • Hartă satelitară
  • Meteo pe hartă
  • Widget-uri
  • user-avatar
    Intrare

    Meteo pe oră la Shkoder

    Astăzi, 22 Iunie, Vineri

    Timp Temperatura Precipitaţii Vânt Presiune Umiditate
    00:00 +21°C° 0,2 mm 1 m/s 739 mmHg 83%
    01:00 +21°C° 0 mm 1 m/s 739 mmHg 84%
    02:00 +20°C° 0,1 mm 1 m/s 738 mmHg 84%
    03:00 +19°C° 0,1 mm 2 m/s 738 mmHg 83%
    04:00 +19°C° 0,1 mm 2 m/s 738 mmHg 83%
    05:00 +20°C° 0,1 mm 2 m/s 738 mmHg 79%
    06:00 +23°C° 0,1 mm 1 m/s 738 mmHg 76%
    07:00 +25°C° 0,1 mm 1 m/s 738 mmHg 72%
    08:00 +25°C° 0,3 mm 2 m/s 738 mmHg 68%
    09:00 +26°C° 0,3 mm 2 m/s 738 mmHg 65%
    10:00 +27°C° 0,3 mm 2 m/s 738 mmHg 61%
    11:00 +28°C° 0,6 mm 3 m/s 738 mmHg 61%
    12:00 +28°C° 0,6 mm 3 m/s 737 mmHg 62%
    13:00 +29°C° 0,6 mm 3 m/s 737 mmHg 62%
    14:00 +28°C° 0,8 mm 3 m/s 737 mmHg 63%
    15:00 +28°C° 0,8 mm 3 m/s 737 mmHg 64%
    16:00 +27°C° 0,8 mm 2 m/s 737 mmHg 66%
    17:00 +26°C° 0,8 mm 2 m/s 738 mmHg 71%
    18:00 +24°C° 0,8 mm 1 m/s 738 mmHg 77%
    19:00 +23°C° 0,8 mm 1 m/s 738 mmHg 82%
    20:00 +22°C° 0,2 mm 1 m/s 738 mmHg 84%
    21:00 +20°C° 0,2 mm 2 m/s 739 mmHg 86%
    22:00 +19°C° 0,2 mm 2 m/s 739 mmHg 88%
    23:00 +18°C° 0,3 mm 3 m/s 739 mmHg 88%

    Mâine, 23 Iunie, Sâmbătă

    Timp Temperatura Precipitaţii Vânt Presiune Umiditate
    00:00 +18°C° 0,3 mm 3 m/s 739 mmHg 88%
    01:00 +17°C° 0,3 mm 3 m/s 739 mmHg 88%
    02:00 +17°C° 1,3 mm 4 m/s 740 mmHg 88%
    03:00 +15°C° 1,3 mm 4 m/s 740 mmHg 88%
    04:00 +14°C° 1,3 mm 5 m/s 740 mmHg 88%
    05:00 +15°C° 0,4 mm 5 m/s 740 mmHg 85%
    06:00 +15°C° 0,4 mm 5 m/s 740 mmHg 81%
    07:00 +16°C° 0,4 mm 5 m/s 740 mmHg 78%
    08:00 +18°C° 0 mm 4 m/s 741 mmHg 70%
    09:00 +20°C° 0 mm 4 m/s 741 mmHg 63%
    10:00 +22°C° 0 mm 4 m/s 741 mmHg 56%
    11:00 +23°C° 0 mm 4 m/s 741 mmHg 52%
    12:00 +25°C° 0 mm 3 m/s 741 mmHg 49%
    13:00 +26°C° 0 mm 3 m/s 740 mmHg 45%
    14:00 +26°C° 0 mm 3 m/s 740 mmHg 45%
    15:00 +26°C° 0 mm 3 m/s 740 mmHg 45%
    16:00 +26°C° 0 mm 3 m/s 739 mmHg 45%
    17:00 +24°C° 0 mm 3 m/s 739 mmHg 51%
    18:00 +21°C° 0 mm 3 m/s 739 mmHg 58%
    19:00 +19°C° 0 mm 3 m/s 739 mmHg 65%
    20:00 +18°C° 0 mm 3 m/s 740 mmHg 67%
    21:00 +17°C° 0 mm 3 m/s 740 mmHg 69%
    22:00 +16°C° 0 mm 3 m/s 741 mmHg 72%
    23:00 +14°C° 0 mm 4 m/s 741 mmHg 74%

    Poimâine, 24 Iunie, Duminică

    Timp Temperatura Precipitaţii Vânt Presiune Umiditate
    00:00 +14°C° 0 mm 4 m/s 741 mmHg 76%
    01:00 +13°C° 0 mm 4 m/s 741 mmHg 78%
    02:00 +13°C° 0 mm 4 m/s 741 mmHg 79%
    03:00 +13°C° 0 mm 4 m/s 741 mmHg 79%
    04:00 +12°C° 0 mm 4 m/s 741 mmHg 80%
    05:00 +14°C° 0 mm 4 m/s 740 mmHg 75%
    06:00 +15°C° 0 mm 4 m/s 740 mmHg 71%
    07:00 +18°C° 0 mm 4 m/s 740 mmHg 66%
    08:00 +19°C° 0 mm 4 m/s 740 mmHg 61%
    09:00 +21°C° 0 mm 4 m/s 740 mmHg 56%
    10:00 +22°C° 0 mm 3 m/s 740 mmHg 51%
    11:00 +24°C° 0 mm 3 m/s 740 mmHg 49%
    12:00 +25°C° 0 mm 2 m/s 740 mmHg 48%
    13:00 +26°C° 0 mm 2 m/s 740 mmHg 46%
    14:00 +25°C° 0 mm 2 m/s 739 mmHg 47%
    15:00 +25°C° 0 mm 2 m/s 739 mmHg 49%
    16:00 +25°C° 0 mm 3 m/s 739 mmHg 50%
    17:00 +24°C° 0 mm 3 m/s 739 mmHg 55%
    18:00 +21°C° 0 mm 3 m/s 739 mmHg 61%
    19:00 +19°C° 0 mm 3 m/s 739 mmHg 66%
    20:00 +19°C° 0 mm 3 m/s 739 mmHg 67%
    21:00 +18°C° 0 mm 3 m/s 739 mmHg 68%
    22:00 +17°C° 0 mm 3 m/s 740 mmHg 69%
    23:00 +16°C° 0 mm 3 m/s 739 mmHg 71%

    25 Iunie, Luni

    Timp Temperatura Precipitaţii Vânt Presiune Umiditate
    00:00 +16°C° 0 mm 3 m/s 739 mmHg 73%
    01:00 +14°C° 0 mm 4 m/s 739 mmHg 74%
    02:00 +14°C° 0 mm 4 m/s 739 mmHg 75%
    03:00 +14°C° 0 mm 4 m/s 739 mmHg 76%
    04:00 +14°C° 0 mm 4 m/s 738 mmHg 76%
    05:00 +15°C° 0 mm 4 m/s 738 mmHg 73%
    06:00 +17°C° 0 mm 4 m/s 738 mmHg 71%
    07:00 +19°C° 0 mm 4 m/s 738 mmHg 68%
    08:00 +20°C° 0 mm 4 m/s 738 mmHg 64%
    09:00 +22°C° 0 mm 4 m/s 738 mmHg 59%
    10:00 +23°C° 0 mm 4 m/s 738 mmHg 55%
    11:00 +25°C° 0,1 mm 4 m/s 738 mmHg 55%
    12:00 +25°C° 0,1 mm 3 m/s 738 mmHg 55%
    13:00 +26°C° 0,1 mm 3 m/s 738 mmHg 55%
    14:00 +25°C° 0,4 mm 3 m/s 738 mmHg 59%
    15:00 +24°C° 0,4 mm 3 m/s 738 mmHg 63%
    16:00 +24°C° 0,4 mm 3 m/s 738 mmHg 66%
    17:00 +21°C° 0,7 mm 3 m/s 738 mmHg 73%
    18:00 +20°C° 0,7 mm 3 m/s 738 mmHg 79%
    19:00 +19°C° 0,7 mm 3 m/s 738 mmHg 86%
    20:00 +18°C° 0,9 mm 3 m/s 738 mmHg 87%
    21:00 +18°C° 0,9 mm 3 m/s 738 mmHg 88%
    22:00 +18°C° 0,9 mm 3 m/s 738 mmHg 89%
    23:00 +17°C° 0,6 mm 3 m/s 738 mmHg 89%

    26 Iunie, Marţi

    Timp Temperatura Precipitaţii Vânt Presiune Umiditate
    00:00 +17°C° 0,6 mm 4 m/s 738 mmHg 89%
    01:00 +17°C° 0,6 mm 4 m/s 737 mmHg 89%
    02:00 +17°C° 0,9 mm 4 m/s 737 mmHg 89%
    03:00 +17°C° 0,9 mm 4 m/s 737 mmHg 90%
    04:00 +17°C° 0,9 mm 4 m/s 737 mmHg 90%
    05:00 +17°C° 0,6 mm 4 m/s 737 mmHg 89%
    06:00 +17°C° 0,6 mm 4 m/s 737 mmHg 88%
    07:00 +18°C° 0,6 mm 4 m/s 736 mmHg 87%
    08:00 +19°C° 0,2 mm 4 m/s 736 mmHg 82%
    09:00 +20°C° 0,2 mm 4 m/s 736 mmHg 78%
    10:00 +21°C° 0,2 mm 4 m/s 736 mmHg 73%
    11:00 +22°C° 0,2 mm 4 m/s 736 mmHg 71%
    12:00 +22°C° 0,2 mm 4 m/s 736 mmHg 70%
    13:00 +23°C° 0,2 mm 4 m/s 736 mmHg 68%
    14:00 +23°C° 0,3 mm 4 m/s 736 mmHg 69%
    15:00 +22°C° 0,3 mm 4 m/s 736 mmHg 71%
    16:00 +22°C° 0,3 mm 4 m/s 736 mmHg 73%
    17:00 +22°C° 0,3 mm 4 m/s 736 mmHg 76%
    18:00 +21°C° 0,3 mm 4 m/s 736 mmHg 79%
    19:00 +20°C° 0,3 mm 4 m/s 736 mmHg 82%
    20:00 +20°C° 0,2 mm 4 m/s 736 mmHg 83%
    21:00 +19°C° 0,2 mm 4 m/s 736 mmHg 83%
    22:00 +19°C° 0,2 mm 4 m/s 736 mmHg 83%
    23:00 +19°C° 0,3 mm 4 m/s 736 mmHg 83%

    27 Iunie, Miercuri

    Timp Temperatura Precipitaţii Vânt Presiune Umiditate
    00:00 +19°C° 0,3 mm 4 m/s 736 mmHg 83%
    01:00 +19°C° 0,3 mm 4 m/s 736 mmHg 83%
    02:00 +19°C° 0,1 mm 4 m/s 736 mmHg 83%
    03:00 +19°C° 0,1 mm 4 m/s 736 mmHg 83%
    04:00 +18°C° 0,1 mm 4 m/s 736 mmHg 83%
    05:00 +19°C° 0,1 mm 4 m/s 736 mmHg 80%
    06:00 +20°C° 0,1 mm 4 m/s 736 mmHg 78%
    07:00 +21°C° 0,1 mm 5 m/s 737 mmHg 76%
    08:00 +21°C° 0,2 mm 5 m/s 737 mmHg 73%
    09:00 +22°C° 0,2 mm 5 m/s 737 mmHg 70%
    10:00 +22°C° 0,2 mm 5 m/s 737 mmHg 67%
    11:00 +23°C° 0,1 mm 5 m/s 737 mmHg 66%
    12:00 +23°C° 0,1 mm 5 m/s 737 mmHg 65%
    13:00 +25°C° 0,1 mm 5 m/s 737 mmHg 64%
    14:00 +25°C° 0,1 mm 5 m/s 737 mmHg 64%
    15:00 +25°C° 0,1 mm 5 m/s 736 mmHg 64%
    16:00 +25°C° 0,1 mm 4 m/s 736 mmHg 64%
    17:00 +23°C° 0 mm 4 m/s 737 mmHg 68%
    18:00 +22°C° 0 mm 4 m/s 737 mmHg 72%
    19:00 +21°C° 0 mm 3 m/s 737 mmHg 76%
    20:00 +20°C° 0 mm 3 m/s 737 mmHg 78%
    21:00 +20°C° 0 mm 3 m/s 738 mmHg 79%
    22:00 +19°C° 0 mm 4 m/s 738 mmHg 81%
    23:00 +19°C° 0 mm 4 m/s 738 mmHg 82%
    Arată mai mult